QPF
0.01 0.01 0.02 0.04 0.06 0.07 0.05 0.05 0.06 0.05 0.04 0.04 0.03 0.03 0.03 0.03 0.03 0.04 0.05 0.08 0.08 0.10 0.13 0.13 0.10 0.12 0.14 0.11 0.11 0.08 0.07 0.07 0.08 0.10 0.10 0.10 0.10 0.10 0.08 0.07 0.07 0.07 0.07
0.02 0.01 0.01 0.03 0.05 0.06 0.04 0.04 0.04 0.03 0.03 0.03 0.03 0.03 0.03 0.03 0.03 0.03 0.04 0.05 0.04 0.05 0.08 0.11 0.10 0.10 0.10 0.09 0.07 0.06 0.07 0.06 0.07 0.08 0.11 0.10 0.08 0.07 0.06 0.05 0.05 0.05 0.04
0.02 0.01 0.02 0.03 0.03 0.04 0.03 0.03 0.04 0.03 0.03 0.03 0.03 0.02 0.02 0.01 0.02 0.03 0.04 0.04 0.04 0.03 0.05 0.08 0.11 0.12 0.09 0.09 0.06 0.05 0.05 0.06 0.07 0.06 0.08 0.09 0.09 0.09 0.06 0.05 0.04 0.04 0.05
0.02 0.02 0.02 0.03 0.02 0.02 0.02 0.04 0.05 0.04 0.03 0.03 0.02 0.02 0.02 0.01 0.01 0.01 0.01 0.01 0.02 0.02 0.03 0.04 0.08 0.12 0.09 0.08 0.07 0.05 0.06 0.06 0.06 0.07 0.08 0.09 0.10 0.11 0.11 0.10 0.08 0.08 0.08
0.02 0.02 0.02 0.03 0.02 0.02 0.02 0.02 0.03 0.03 0.02 0.02 0.02 0.02 0.02 0.02 0.02 0.01 0.01 0.01 0.02 0.03 0.03 0.03 0.06 0.11 0.12 0.09 0.08 0.08 0.08 0.09 0.07 0.06 0.07 0.08 0.11 0.12 0.14 0.13 0.12 0.10 0.09
0.02 0.02 0.02 0.02 0.03 0.02 0.03 0.04 0.02 0.02 0.01 0.02 0.01 0.01 0.01 0.01 0.01 0.01 0.01 0.01 0.01 0.02 0.03 0.05 0.07 0.08 0.11 0.12 0.09 0.08 0.08 0.12 0.10 0.08 0.07 0.06 0.08 0.11 0.14 0.14 0.12 0.11 0.11
0.03 0.02 0.02 0.02 0.03 0.03 0.03 0.04 0.03 0.01 0.02 0.01 0.01 0.01 0.01 0.01 0.01 0.01 0.01 0.01 0.02 0.03 0.06 0.08 0.07 0.07 0.08 0.11 0.09 0.07 0.07 0.09 0.12 0.12 0.11 0.09 0.08 0.11 0.12 0.13 0.10 0.08 0.08
0.03 0.03 0.03 0.03 0.02 0.03 0.02 0.01 0.01 0.02 0.02 0.01 0.01 0.01 0.01 0.01 0.01 0.01 0.01 0.02 0.03 0.06 0.08 0.07 0.06 0.07 0.07 0.07 0.08 0.07 0.06 0.06 0.08 0.09 0.09 0.06 0.06 0.07 0.09 0.10 0.09 0.07 0.06
0.02 0.02 0.03 0.04 0.03 0.01 0.01 0.01 0.01 0.02 0.02 0.02 0.01 0.02 0.02 0.02 0.02 0.02 0.02 0.02 0.03 0.04 0.04 0.04 0.05 0.07 0.07 0.06 0.08 0.06 0.04 0.04 0.06 0.07 0.07 0.05 0.05 0.07 0.07 0.07 0.09 0.08 0.05
0.03 0.02 0.02 0.02 0.02 0.02 0.02 0.02 0.01 0.02 0.03 0.02 0.02 0.02 0.02 0.02 0.02 0.03 0.02 0.03 0.03 0.03 0.03 0.04 0.04 0.05 0.05 0.07 0.07 0.07 0.04 0.03 0.04 0.05 0.05 0.05 0.05 0.07 0.07 0.07 0.08 0.09 0.09
0.03 0.03 0.03 0.02 0.03 0.02 0.02 0.02 0.01 0.02 0.02 0.03 0.03 0.02 0.02 0.02 0.02 0.01 0.01 0.02 0.02 0.02 0.02 0.03 0.03 0.03 0.04 0.05 0.06 0.06 0.06 0.05 0.04 0.05 0.05 0.05 0.05 0.06 0.08 0.07 0.07 0.08 0.09
0.02 0.02 0.03 0.03 0.04 0.04 0.03 0.02 0.02 0.01 0.02 0.02 0.02 0.02 0.02 0.02 0.02 0.02 0.02 0.01 0.02 0.02 0.02 0.02 0.03 0.03 0.04 0.05 0.06 0.07 0.07 0.07 0.06 0.05 0.06 0.07 0.05 0.06 0.09 0.09 0.08 0.08 0.08
0.02 0.02 0.03 0.05 0.05 0.04 0.03 0.03 0.03 0.02 0.03 0.02 0.02 0.02 0.02 0.02 0.02 0.03 0.03 0.02 0.02 0.03 0.03 0.02 0.02 0.02 0.03 0.04 0.05 0.06 0.05 0.05 0.05 0.05 0.05 0.08 0.07 0.08 0.10 0.11 0.09 0.08 0.07
0.03 0.03 0.04 0.05 0.05 0.04 0.03 0.03 0.03 0.04 0.04 0.04 0.03 0.03 0.02 0.02 0.02 0.03 0.03 0.02 0.02 0.02 0.02 0.02 0.02 0.02 0.02 0.03 0.04 0.04 0.03 0.03 0.03 0.03 0.04 0.05 0.06 0.06 0.06 0.06 0.05 0.05 0.06
0.02 0.03 0.03 0.03 0.03 0.03 0.03 0.03 0.03 0.02 0.02 0.02 0.02 0.02 0.02 0.01 0.02 0.02 0.03 0.02 0.02 0.02 0.02 0.02 0.02 0.02 0.02 0.02 0.03 0.03 0.03 0.03 0.02 0.02 0.02 0.03 0.03 0.04 0.05 0.05 0.04 0.04 0.04
0.02 0.03 0.02 0.01 0.01 0.01 0.02 0.02 0.03 0.03 0.02 0.02 0.02 0.02 0.02 0.01 0.02 0.02 0.03 0.03 0.03 0.03 0.02 0.02 0.02 0.02 0.02 0.02 0.02 0.02 0.03 0.03 0.03 0.03 0.03 0.03 0.02 0.02 0.03 0.04 0.04 0.04 0.04
0.03 0.03 0.02 0.01 0.01 0.01 0.01 0.01 0.01 0.01 0.02 0.02 0.02 0.02 0.02 0.02 0.02 0.02 0.02 0.02 0.02 0.03 0.03 0.02 0.02 0.02 0.02 0.02 0.01 0.02 0.02 0.03 0.03 0.03 0.04 0.04 0.03 0.02 0.02 0.03 0.04 0.04 0.03
0.03 0.02 0.02 0.02 0.01 0.01 0.01 0.01 0.00 0.00 0.01 0.01 0.01 0.02 0.02 0.02 0.02 0.02 0.02 0.02 0.01 0.01 0.02 0.02 0.02 0.02 0.03 0.03 0.02 0.02 0.02 0.02 0.02 0.02 0.03 0.05 0.04 0.03 0.03 0.03 0.04 0.04 0.03
0.03 0.02 0.02 0.01 0.01 0.00 0.00 0.00 0.00 0.01 0.01 0.01 0.01 0.01 0.01 0.02 0.02 0.02 0.03 0.02 0.02 0.01 0.01 0.02 0.01 0.02 0.03 0.04 0.03 0.02 0.02 0.02 0.02 0.03 0.03 0.03 0.03 0.03 0.03 0.04 0.04 0.03 0.03
0.01 0.01 0.01 0.01 0.01 0.00 0.00 0.00 0.00 0.00 0.00 0.00 0.01 0.01 0.01 0.02 0.02 0.02 0.03 0.03 0.03 0.03 0.02 0.02 0.02 0.02 0.02 0.02 0.03 0.02 0.02 0.02 0.02 0.02 0.02 0.02 0.02 0.02 0.02 0.03 0.03 0.03 0.03
0.01 0.01 0.01 0.01 0.01 0.01 0.01 0.01 0.00 0.00 0.00 0.00 0.01 0.01 0.01 0.01 0.03 0.03 0.02 0.02 0.03 0.03 0.02 0.02 0.02 0.02 0.02 0.02 0.02 0.02 0.02 0.02 0.02 0.02 0.01 0.01 0.01 0.01 0.02 0.03 0.03 0.03 0.04
0.01 0.00 0.01 0.01 0.01 0.01 0.01 0.01 0.01 0.01 0.00 0.01 0.01 0.02 0.02 0.03 0.05 0.04 0.02 0.02 0.02 0.03 0.03 0.02 0.02 0.01 0.01 0.02 0.02 0.02 0.02 0.02 0.02 0.02 0.02 0.01 0.01 0.01 0.01 0.02 0.02 0.03 0.04
0.01 0.00 0.01 0.01 0.01 0.01 0.01 0.01 0.02 0.02 0.01 0.01 0.01 0.01 0.01 0.02 0.03 0.03 0.02 0.02 0.02 0.02 0.02 0.02 0.02 0.01 0.01 0.02 0.02 0.02 0.02 0.02 0.03 0.03 0.03 0.02 0.01 0.01 0.01 0.01 0.02 0.02 0.03
0.00 0.00 0.01 0.01 0.01 0.01 0.02 0.02 0.01 0.01 0.01 0.01 0.01 0.01 0.02 0.02 0.02 0.02 0.02 0.02 0.02 0.02 0.02 0.01 0.01 0.01 0.01 0.02 0.02 0.02 0.02 0.02 0.02 0.02 0.03 0.03 0.02 0.02 0.01 0.01 0.01 0.01 0.02
0.01 0.01 0.01 0.01 0.01 0.02 0.01 0.02 0.02 0.02 0.02 0.02 0.03 0.03 0.03 0.02 0.03 0.03 0.02 0.01 0.01 0.01 0.01 0.02 0.01 0.01 0.01 0.01 0.02 0.02 0.02 0.02 0.02 0.02 0.02 0.03 0.02 0.02 0.02 0.02 0.02 0.02 0.02
0.01 0.02 0.02 0.01 0.01 0.02 0.02 0.01 0.01 0.02 0.03 0.03 0.03 0.03 0.04 0.03 0.03 0.03 0.02 0.02 0.01 0.01 0.01 0.01 0.01 0.01 0.01 0.01 0.02 0.01 0.02 0.03 0.03 0.02 0.02 0.02 0.03 0.04 0.03 0.02 0.02 0.02 0.02
MSLP
1015.30 1015.20 1015.02 1014.78 1014.50 1014.17 1013.82 1013.44 1013.03 1012.57 1012.08 1011.55 1011.01 1010.51 1010.07 1009.75 1009.59 1009.58 1009.72 1009.98 1010.30 1010.64 1010.95 1011.22 1011.45 1011.64 1011.84 1012.06 1012.34 1012.66 1013.04 1013.43 1013.81 1014.17 1014.47 1014.74 1014.97 1015.18 1015.39 1015.62 1015.87 1016.14 1016.40
1015.63 1015.54 1015.39 1015.18 1014.93 1014.64 1014.32 1013.96 1013.56 1013.10 1012.59 1012.04 1011.47 1010.93 1010.46 1010.10 1009.89 1009.85 1009.95 1010.17 1010.45 1010.76 1011.06 1011.31 1011.52 1011.70 1011.89 1012.11 1012.38 1012.71 1013.09 1013.49 1013.91 1014.30 1014.65 1014.95 1015.22 1015.46 1015.68 1015.90 1016.14 1016.37 1016.61
1015.89 1015.82 1015.69 1015.52 1015.31 1015.06 1014.78 1014.46 1014.08 1013.64 1013.14 1012.59 1012.01 1011.46 1010.96 1010.58 1010.33 1010.25 1010.30 1010.47 1010.71 1010.97 1011.22 1011.44 1011.62 1011.77 1011.93 1012.12 1012.36 1012.67 1013.04 1013.46 1013.89 1014.32 1014.72 1015.08 1015.40 1015.67 1015.92 1016.15 1016.37 1016.58 1016.78
1016.08 1016.01 1015.91 1015.77 1015.61 1015.41 1015.18 1014.90 1014.57 1014.16 1013.69 1013.16 1012.59 1012.04 1011.54 1011.15 1010.87 1010.75 1010.76 1010.88 1011.06 1011.27 1011.47 1011.64 1011.77 1011.87 1011.98 1012.12 1012.32 1012.60 1012.95 1013.36 1013.81 1014.27 1014.72 1015.14 1015.51 1015.84 1016.12 1016.37 1016.58 1016.78 1016.96
1016.17 1016.12 1016.04 1015.94 1015.82 1015.68 1015.50 1015.27 1014.99 1014.63 1014.20 1013.71 1013.18 1012.65 1012.17 1011.77 1011.49 1011.34 1011.31 1011.38 1011.51 1011.66 1011.80 1011.91 1011.99 1012.04 1012.09 1012.18 1012.32 1012.55 1012.86 1013.25 1013.70 1014.19 1014.68 1015.16 1015.59 1015.97 1016.30 1016.57 1016.80 1016.99 1017.15
1016.19 1016.15 1016.09 1016.03 1015.95 1015.86 1015.74 1015.57 1015.34 1015.03 1014.66 1014.22 1013.74 1013.26 1012.81 1012.43 1012.14 1011.98 1011.92 1011.94 1012.02 1012.12 1012.21 1012.27 1012.30 1012.30 1012.30 1012.32 1012.41 1012.58 1012.84 1013.19 1013.63 1014.12 1014.65 1015.16 1015.65 1016.09 1016.47 1016.77 1017.02 1017.21 1017.37
1016.14 1016.11 1016.09 1016.06 1016.03 1015.98 1015.90 1015.79 1015.61 1015.37 1015.05 1014.68 1014.26 1013.83 1013.43 1013.08 1012.81 1012.64 1012.56 1012.55 1012.59 1012.65 1012.70 1012.72 1012.71 1012.67 1012.62 1012.59 1012.62 1012.73 1012.93 1013.23 1013.63 1014.11 1014.64 1015.18 1015.71 1016.19 1016.61 1016.96 1017.23 1017.43 1017.60
1016.04 1016.04 1016.04 1016.05 1016.06 1016.05 1016.02 1015.95 1015.82 1015.63 1015.38 1015.08 1014.73 1014.37 1014.02 1013.71 1013.47 1013.30 1013.21 1013.18 1013.19 1013.21 1013.24 1013.23 1013.20 1013.13 1013.05 1012.99 1012.96 1013.01 1013.14 1013.38 1013.72 1014.16 1014.67 1015.21 1015.75 1016.27 1016.72 1017.10 1017.41 1017.64 1017.82
1015.89 1015.92 1015.96 1016.01 1016.05 1016.08 1016.08 1016.05 1015.97 1015.83 1015.64 1015.40 1015.13 1014.84 1014.55 1014.30 1014.08 1013.93 1013.83 1013.78 1013.77 1013.78 1013.79 1013.77 1013.73 1013.66 1013.57 1013.48 1013.41 1013.40 1013.46 1013.62 1013.90 1014.27 1014.73 1015.24 1015.78 1016.31 1016.79 1017.20 1017.53 1017.79 1018.00
1015.69 1015.76 1015.84 1015.92 1015.99 1016.05 1016.08 1016.07 1016.02 1015.93 1015.80 1015.63 1015.43 1015.22 1015.00 1014.79 1014.61 1014.48 1014.38 1014.32 1014.30 1014.30 1014.30 1014.29 1014.26 1014.20 1014.12 1014.01 1013.92 1013.86 1013.85 1013.93 1014.12 1014.41 1014.80 1015.27 1015.78 1016.30 1016.80 1017.23 1017.60 1017.89 1018.12
1015.42 1015.54 1015.66 1015.77 1015.87 1015.94 1015.98 1015.99 1015.97 1015.92 1015.84 1015.73 1015.60 1015.46 1015.31 1015.16 1015.02 1014.90 1014.81 1014.75 1014.72 1014.72 1014.73 1014.74 1014.73 1014.69 1014.62 1014.53 1014.42 1014.32 1014.25 1014.26 1014.36 1014.57 1014.88 1015.29 1015.77 1016.27 1016.76 1017.22 1017.61 1017.93 1018.19
1015.06 1015.23 1015.39 1015.53 1015.64 1015.73 1015.78 1015.80 1015.79 1015.77 1015.73 1015.68 1015.62 1015.55 1015.46 1015.37 1015.27 1015.17 1015.09 1015.03 1015.00 1015.00 1015.02 1015.05 1015.08 1015.08 1015.04 1014.96 1014.85 1014.73 1014.62 1014.56 1014.59 1014.72 1014.96 1015.30 1015.73 1016.21 1016.71 1017.17 1017.58 1017.93 1018.21
1014.62 1014.84 1015.03 1015.19 1015.32 1015.40 1015.45 1015.47 1015.47 1015.46 1015.46 1015.46 1015.46 1015.45 1015.42 1015.38 1015.32 1015.26 1015.19 1015.14 1015.11 1015.12 1015.16 1015.22 1015.28 1015.32 1015.33 1015.28 1015.19 1015.06 1014.93 1014.83 1014.79 1014.85 1015.02 1015.31 1015.70 1016.15 1016.64 1017.11 1017.54 1017.91 1018.21
1014.12 1014.38 1014.59 1014.77 1014.89 1014.97 1015.00 1015.01 1015.01 1015.01 1015.04 1015.07 1015.12 1015.17 1015.20 1015.21 1015.19 1015.15 1015.11 1015.07 1015.06 1015.08 1015.14 1015.23 1015.33 1015.42 1015.47 1015.47 1015.41 1015.30 1015.16 1015.03 1014.96 1014.97 1015.08 1015.32 1015.67 1016.10 1016.57 1017.04 1017.49 1017.87 1018.19
1013.61 1013.88 1014.11 1014.28 1014.40 1014.46 1014.47 1014.46 1014.45 1014.46 1014.49 1014.56 1014.64 1014.73 1014.81 1014.87 1014.89 1014.88 1014.86 1014.84 1014.84 1014.88 1014.97 1015.10 1015.25 1015.39 1015.50 1015.55 1015.53 1015.45 1015.32 1015.19 1015.08 1015.05 1015.13 1015.32 1015.63 1016.03 1016.49 1016.96 1017.41 1017.81 1018.14
1013.13 1013.40 1013.62 1013.78 1013.87 1013.91 1013.90 1013.87 1013.84 1013.84 1013.87 1013.95 1014.06 1014.18 1014.30 1014.39 1014.45 1014.47 1014.47 1014.48 1014.50 1014.57 1014.69 1014.86 1015.05 1015.25 1015.41 1015.52 1015.56 1015.51 1015.41 1015.28 1015.17 1015.11 1015.15 1015.30 1015.56 1015.93 1016.36 1016.82 1017.28 1017.69 1018.04
1012.70 1012.95 1013.15 1013.28 1013.35 1013.36 1013.32 1013.26 1013.21 1013.19 1013.23 1013.30 1013.42 1013.56 1013.70 1013.82 1013.90 1013.95 1013.98 1014.01 1014.07 1014.17 1014.32 1014.53 1014.78 1015.03 1015.26 1015.42 1015.51 1015.52 1015.44 1015.33 1015.21 1015.12 1015.12 1015.22 1015.43 1015.75 1016.16 1016.60 1017.06 1017.48 1017.86
1012.34 1012.54 1012.70 1012.80 1012.84 1012.82 1012.75 1012.67 1012.60 1012.56 1012.57 1012.64 1012.76 1012.90 1013.05 1013.18 1013.29 1013.36 1013.42 1013.49 1013.57 1013.71 1013.90 1014.15 1014.45 1014.75 1015.04 1015.26 1015.41 1015.46 1015.42 1015.32 1015.19 1015.08 1015.03 1015.07 1015.23 1015.49 1015.85 1016.27 1016.72 1017.16 1017.57
1011.99 1012.14 1012.25 1012.31 1012.32 1012.27 1012.18 1012.07 1011.98 1011.92 1011.92 1011.97 1012.07 1012.21 1012.36 1012.50 1012.62 1012.72 1012.80 1012.90 1013.02 1013.19 1013.43 1013.72 1014.06 1014.42 1014.76 1015.04 1015.24 1015.34 1015.33 1015.24 1015.11 1014.97 1014.88 1014.86 1014.95 1015.14 1015.44 1015.83 1016.27 1016.72 1017.17
1011.61 1011.69 1011.75 1011.78 1011.75 1011.68 1011.57 1011.45 1011.34 1011.26 1011.23 1011.27 1011.35 1011.48 1011.62 1011.76 1011.89 1012.01 1012.13 1012.25 1012.41 1012.62 1012.90 1013.24 1013.62 1014.03 1014.42 1014.76 1015.01 1015.15 1015.18 1015.11 1014.98 1014.82 1014.68 1014.60 1014.62 1014.74 1014.98 1015.32 1015.74 1016.20 1016.69
1011.13 1011.15 1011.16 1011.15 1011.10 1011.01 1010.89 1010.76 1010.63 1010.54 1010.50 1010.51 1010.58 1010.68 1010.82 1010.96 1011.10 1011.24 1011.38 1011.54 1011.73 1011.98 1012.30 1012.68 1013.11 1013.56 1014.00 1014.39 1014.69 1014.89 1014.96 1014.92 1014.80 1014.63 1014.46 1014.33 1014.29 1014.34 1014.52 1014.80 1015.20 1015.66 1016.17
1010.52 1010.48 1010.45 1010.41 1010.34 1010.23 1010.11 1009.97 1009.83 1009.73 1009.67 1009.67 1009.72 1009.81 1009.94 1010.08 1010.24 1010.39 1010.56 1010.76 1010.99 1011.28 1011.63 1012.05 1012.52 1013.01 1013.50 1013.94 1014.30 1014.55 1014.68 1014.69 1014.60 1014.44 1014.27 1014.11 1014.01 1014.01 1014.12 1014.36 1014.71 1015.16 1015.68
1009.77 1009.69 1009.62 1009.55 1009.46 1009.35 1009.22 1009.07 1008.93 1008.83 1008.76 1008.74 1008.78 1008.87 1008.99 1009.14 1009.30 1009.49 1009.69 1009.92 1010.19 1010.51 1010.90 1011.35 1011.85 1012.39 1012.92 1013.41 1013.83 1014.15 1014.35 1014.43 1014.39 1014.27 1014.12 1013.95 1013.83 1013.79 1013.85 1014.02 1014.32 1014.73 1015.23
1008.93 1008.81 1008.71 1008.61 1008.51 1008.38 1008.24 1008.10 1007.96 1007.84 1007.77 1007.75 1007.78 1007.86 1007.99 1008.15 1008.34 1008.54 1008.78 1009.04 1009.34 1009.70 1010.12 1010.59 1011.12 1011.69 1012.26 1012.81 1013.29 1013.68 1013.97 1014.13 1014.18 1014.13 1014.02 1013.88 1013.76 1013.69 1013.71 1013.83 1014.06 1014.41 1014.86
1008.05 1007.89 1007.77 1007.65 1007.52 1007.39 1007.24 1007.09 1006.94 1006.83 1006.75 1006.73 1006.76 1006.85 1006.98 1007.16 1007.37 1007.60 1007.87 1008.16 1008.49 1008.88 1009.32 1009.81 1010.36 1010.95 1011.56 1012.15 1012.70 1013.17 1013.54 1013.80 1013.94 1013.98 1013.95 1013.86 1013.76 1013.68 1013.67 1013.73 1013.90 1014.16 1014.53
1007.19 1007.01 1006.85 1006.70 1006.55 1006.40 1006.24 1006.08 1005.94 1005.82 1005.75 1005.73 1005.77 1005.86 1006.01 1006.20 1006.44 1006.70 1006.99 1007.31 1007.67 1008.07 1008.53 1009.04 1009.60 1010.20 1010.83 1011.46 1012.06 1012.60 1013.06 1013.42 1013.67 1013.81 1013.85 1013.83 1013.77 1013.70 1013.65 1013.66 1013.75 1013.93 1014.19
Thickness
5724 5724 5723 5721 5722 5721 5722 5722 5724 5724 5724 5724 5725 5725 5725 5725 5725 5724 5722 5720 5721 5722 5722 5722 5722 5721 5721 5720 5720 5721 5721 5722 5722 5722 5722 5722 5722 5722 5722 5722 5723 5722 5721
5719 5719 5718 5717 5717 5717 5717 5718 5719 5719 5719 5718 5718 5718 5719 5719 5719 5718 5717 5716 5715 5716 5716 5716 5716 5716 5715 5715 5715 5716 5717 5717 5718 5717 5717 5718 5718 5718 5718 5718 5718 5718 5717
5715 5714 5714 5713 5712 5712 5713 5713 5713 5713 5713 5712 5712 5712 5712 5712 5712 5713 5712 5712 5711 5710 5710 5710 5710 5710 5710 5710 5711 5711 5712 5713 5713 5713 5713 5713 5712 5712 5713 5713 5713 5713 5713
5711 5710 5709 5708 5708 5708 5708 5707 5708 5707 5707 5707 5707 5707 5707 5706 5707 5707 5707 5707 5707 5706 5705 5704 5704 5704 5705 5705 5705 5706 5707 5708 5708 5708 5708 5708 5707 5707 5708 5708 5708 5708 5708
5706 5706 5704 5704 5704 5703 5703 5703 5702 5702 5701 5701 5702 5701 5701 5701 5700 5701 5702 5702 5702 5701 5701 5699 5699 5699 5699 5699 5700 5701 5701 5702 5702 5702 5702 5703 5702 5702 5703 5703 5703 5702 5702
5701 5701 5700 5700 5699 5699 5698 5698 5696 5696 5696 5696 5697 5696 5696 5696 5696 5695 5696 5696 5696 5697 5697 5696 5696 5695 5694 5694 5694 5695 5695 5696 5696 5696 5697 5697 5697 5697 5698 5698 5697 5696 5696
5697 5697 5697 5696 5694 5694 5693 5693 5692 5690 5690 5692 5692 5690 5691 5691 5691 5689 5690 5691 5691 5691 5692 5692 5692 5691 5691 5689 5688 5689 5689 5690 5690 5690 5691 5691 5692 5692 5692 5693 5692 5691 5690
5693 5692 5692 5692 5690 5689 5688 5688 5687 5686 5686 5687 5688 5687 5684 5684 5683 5685 5685 5685 5686 5686 5686 5687 5687 5686 5686 5685 5683 5683 5683 5683 5683 5684 5684 5685 5686 5686 5686 5687 5687 5686 5685
5689 5688 5688 5688 5686 5686 5684 5683 5682 5681 5681 5683 5684 5683 5680 5678 5678 5680 5680 5680 5680 5680 5681 5681 5682 5681 5681 5680 5679 5677 5676 5677 5677 5677 5678 5678 5679 5680 5680 5681 5680 5680 5679
5685 5684 5684 5683 5682 5681 5680 5679 5679 5678 5677 5677 5678 5678 5680 5678 5675 5673 5674 5675 5675 5675 5675 5676 5676 5676 5675 5674 5673 5671 5670 5670 5671 5671 5672 5672 5672 5673 5674 5674 5674 5674 5674
5681 5680 5679 5679 5678 5677 5676 5675 5674 5674 5675 5674 5674 5673 5672 5672 5674 5671 5668 5668 5669 5669 5670 5670 5670 5670 5669 5669 5667 5666 5665 5664 5664 5665 5665 5666 5666 5667 5668 5668 5668 5668 5668
5678 5676 5675 5675 5674 5674 5672 5671 5670 5670 5670 5670 5670 5669 5668 5668 5667 5667 5665 5664 5664 5664 5664 5664 5664 5664 5663 5663 5661 5659 5659 5658 5658 5658 5659 5659 5660 5660 5661 5662 5662 5662 5662
5675 5673 5672 5671 5671 5670 5669 5667 5667 5666 5666 5665 5665 5666 5665 5665 5664 5663 5662 5661 5659 5659 5658 5659 5658 5657 5657 5657 5656 5654 5653 5653 5653 5653 5653 5653 5653 5654 5655 5655 5656 5656 5656
5673 5671 5669 5668 5667 5666 5664 5664 5663 5662 5662 5662 5661 5660 5660 5660 5659 5658 5657 5655 5654 5654 5654 5653 5653 5652 5651 5651 5650 5649 5649 5648 5647 5647 5647 5647 5647 5647 5648 5648 5649 5649 5650
5669 5667 5666 5664 5663 5662 5661 5660 5658 5658 5657 5657 5657 5656 5655 5654 5653 5653 5652 5651 5649 5648 5647 5648 5647 5646 5645 5644 5643 5644 5645 5643 5642 5642 5641 5641 5641 5640 5641 5641 5642 5642 5642
5665 5663 5662 5661 5659 5658 5656 5655 5654 5652 5652 5651 5650 5650 5649 5649 5648 5646 5646 5646 5646 5644 5642 5643 5641 5641 5639 5639 5637 5638 5639 5637 5636 5636 5635 5634 5634 5634 5634 5634 5634 5635 5635
5661 5659 5658 5656 5655 5653 5652 5650 5649 5647 5647 5646 5646 5645 5644 5643 5641 5641 5640 5639 5638 5638 5635 5635 5635 5635 5634 5633 5632 5632 5633 5632 5632 5630 5629 5629 5628 5628 5628 5628 5627 5628 5628
5657 5655 5654 5652 5650 5649 5647 5645 5643 5642 5642 5641 5640 5639 5638 5636 5635 5634 5633 5633 5632 5631 5630 5627 5627 5627 5627 5627 5626 5626 5626 5626 5626 5624 5623 5623 5622 5622 5621 5621 5621 5621 5621
5652 5651 5649 5647 5646 5644 5643 5641 5639 5638 5637 5636 5634 5633 5632 5630 5629 5627 5626 5626 5625 5624 5623 5621 5620 5619 5619 5619 5618 5619 5619 5619 5619 5618 5617 5617 5616 5616 5616 5615 5615 5614 5615
5647 5645 5644 5642 5640 5639 5637 5635 5633 5632 5631 5629 5628 5626 5625 5624 5622 5621 5620 5619 5618 5616 5615 5613 5612 5611 5611 5611 5611 5611 5612 5612 5612 5612 5611 5611 5611 5610 5610 5609 5609 5608 5609
5641 5640 5638 5637 5635 5633 5631 5628 5627 5625 5624 5623 5622 5620 5619 5616 5614 5613 5613 5611 5610 5608 5607 5606 5605 5605 5604 5603 5604 5604 5604 5605 5605 5605 5605 5606 5606 5606 5605 5604 5603 5602 5602
5635 5634 5632 5631 5628 5626 5622 5618 5617 5617 5617 5616 5615 5614 5612 5609 5606 5604 5603 5602 5601 5601 5600 5599 5599 5599 5599 5598 5597 5597 5597 5597 5597 5598 5597 5598 5599 5600 5600 5600 5598 5596 5596
5628 5626 5625 5623 5621 5618 5613 5610 5609 5610 5610 5610 5608 5607 5605 5603 5599 5599 5596 5594 5593 5591 5590 5592 5592 5592 5592 5592 5590 5590 5590 5590 5590 5590 5588 5590 5591 5592 5592 5592 5590 5589 5589
5622 5620 5618 5616 5613 5610 5606 5604 5602 5603 5603 5602 5601 5600 5598 5596 5593 5591 5590 5589 5588 5586 5584 5583 5584 5585 5584 5583 5582 5582 5581 5581 5582 5581 5580 5582 5584 5585 5585 5584 5583 5583 5582
5616 5614 5611 5609 5607 5604 5599 5596 5594 5596 5596 5595 5594 5592 5590 5588 5584 5581 5581 5582 5581 5580 5577 5575 5574 5574 5573 5572 5571 5571 5572 5572 5573 5574 5573 5574 5576 5577 5577 5577 5576 5575 5574
5608 5606 5604 5603 5601 5599 5593 5590 5586 5589 5589 5588 5586 5584 5581 5579 5575 5572 5573 5574 5574 5573 5571 5570 5568 5567 5566 5565 5563 5564 5564 5564 5565 5566 5567 5565 5567 5566 5568 5570 5569 5568 5567